GSAT0215 (GALILEO 19)

Last updated on Oct. 24, 2020, 5:54 a.m. UTC

1 43055U 17079A   20297.58719074 -.00000011  00000-0  00000-0 0  9995
2 43055  56.1732 278.2787 0004199 273.4854  86.4520  1.70473714 17827
UTC
Height (km)
Latitude
Longitude
Inclination
Orbital Period
UTC large
Height (km)
Speed (km/s)
/
Latitude / Longitude
Inclination (degrees)
Orbital Period (minutes)
Azimuth
Elevation
Range (km)
Doppler Factor
iOS Compass Heading
iOS Angle

Next 30 passes for location: Hong Kong

Rise time Rise Azimuth (degrees) Set time Set Azimuth (degrees) Duration Max altitude (degrees)

No matching passes for this satellites